This is the latest recevied weather packets stored in our database for station/object 5B4APJ-13. If no packets are shown the sender has not sent any weather packets the latest 10 day(s).
| Time | Temp. | Humidity | Pressure | Rain* | Wind** | Luminosity | Snow |
|---|---|---|---|---|---|---|---|
| 1777732626 | 19.44° C | 58% | 1011.3 hPa | 0 mm | 0.89 m/s, 280° | 54 W/m² | - |
| 1777732327 | 19.44° C | 57% | 1011.1 hPa | 0 mm | 0.89 m/s, 296° | 53 W/m² | - |
| 1777732027 | 20° C | 54% | 1011 hPa | 0 mm | 0.89 m/s, 271° | 59 W/m² | - |
| 1777731726 | 20° C | 54% | 1011.1 hPa | 0 mm | 0.45 m/s, 272° | 54 W/m² | - |
| 1777731427 | 20° C | 53% | 1010.8 hPa | 0 mm | 0.89 m/s, 285° | 69 W/m² | - |
| 1777731127 | 20° C | 52% | 1010.9 hPa | 0 mm | 1.34 m/s, 26° | 93 W/m² | - |
| 1777730526 | 20° C | 52% | 1010.9 hPa | 0 mm | 0 m/s | 142 W/m² | - |
| 1777730226 | 20° C | 52% | 1010.8 hPa | 0 mm | 1.34 m/s, 325° | 128 W/m² | - |
| 1777729927 | 20° C | 52% | 1010.8 hPa | 0 mm | 1.34 m/s, 337° | 137 W/m² | - |
| 1777729627 | 20° C | 52% | 1010.8 hPa | 0 mm | 1.79 m/s, 314° | 158 W/m² | - |
| 1777729327 | 20° C | 53% | 1010.6 hPa | 0 mm | 0.89 m/s, 0° | 140 W/m² | - |
| 1777729026 | 20° C | 52% | 1010.6 hPa | 0 mm | 1.79 m/s, 311° | 172 W/m² | - |
| 1777728727 | 20° C | 53% | 1010.4 hPa | 0 mm | 0.89 m/s, 345° | 224 W/m² | - |
| 1777728426 | 20° C | 53% | 1010.7 hPa | 0 mm | 1.79 m/s, 39° | 191 W/m² | - |
| 1777728127 | 20° C | 53% | 1010.8 hPa | 0 mm | 0.89 m/s, 313° | 168 W/m² | - |
| 1777727827 | 20.56° C | 54% | 1010.6 hPa | 0 mm | 0.89 m/s, 288° | 166 W/m² | - |
| 1777727527 | 20.56° C | 53% | 1010.6 hPa | 0 mm | 0.89 m/s, 331° | 189 W/m² | - |
| 1777727226 | 20° C | 54% | 1010.6 hPa | 0 mm | 0.89 m/s, 344° | 199 W/m² | - |
| 1777726926 | 20° C | 55% | 1010.4 hPa | 0 mm | 0.45 m/s, 7° | 111 W/m² | - |
| 1777726627 | 20° C | 53% | 1010.7 hPa | 0 mm | 1.34 m/s, 293° | 99 W/m² | - |
| 1777726326 | 20.56° C | 52% | 1010.5 hPa | 0 mm | 0.89 m/s, 11° | 94 W/m² | - |
| 1777726027 | 20.56° C | 54% | 1010.8 hPa | 0 mm | 0.45 m/s, 298° | 91 W/m² | - |
| 1777725727 | 20.56° C | 53% | 1011 hPa | 0 mm | 0.89 m/s, 14° | 122 W/m² | - |
| 1777725426 | 20.56° C | 54% | 1011.1 hPa | 0 mm | 1.34 m/s, 280° | 183 W/m² | - |
| 1777725126 | 20.56° C | 55% | 1011.1 hPa | 0 mm | 1.79 m/s, 296° | 219 W/m² | - |
* Rain latest hour (hover to see other rain measurements)
** Current wind speed in m/s (hover to see current wind gust speed)